USA 167

Last updated on Sat Aug 15 2026 00:02:57 GMT+0000 (Coordinated Universal Time)

1 27691U 03008A 26226.13712644 -.00000009 00000+0 00000+0 0 9990 2 27691 11.0736 42.8740 0003124 304.7567 262.1923 1.00267912 7350
UTC large
Height (km)
Speed (km/s)
/
Latitude / Longitude
Inclination (degrees)
Orbital Period (minutes)
Azimuth
Elevation
Range (km)
Doppler Factor

Next 0 passes for location: London (51.5072 / 0.1276)

No passes found over London.
USA 167